NOSS 2-2 (D) - Orbit

View from above orbital plane
View from above orbital plane
View from above satellite
View from above satellite

Ground track
Ground track

The orbit data is extracted from the following two-line orbital elements,

1 21808U 91076D   13126.06937317 0.00000100  00000-0  56833-4 0    04
2 21808  63.3810  11.4766 0624500  11.4726 348.5274 13.40475020    04
Epoch (UTC): 06 May 2013 01:39:53
Eccentricity: 0.0624500
inclination: 63.3810°
perigee height: 640 km
apogee height: 1575 km
right ascension of ascending node: 11.4766°
argument of perigee: 11.4726°
revolutions per day: 13.40475020
mean anomaly at epoch: 348.5274°
orbit number at epoch: 0

The dashed part of the orbit path shows where the satellite is in the earth's shadow,  

Developed and maintained by Chris Peat, Heavens-Above GmbH. Please read the updated FAQ before sending e-mail. Imprint. DLR